Weather History for LKMT - October, 2012

Change the Weather History Date:

Tuesday, October 9, 2012

  Actual Average (EPKT) Record (EPKT)
Temperature  
Mean Temperature 44 °F -  
Max Temperature 56 °F 53 °F - (-1)
Min Temperature 33 °F 38 °F - (-1)
Degree Days  
Heating Degree Days 20    
Moisture  
Dew Point 39 °F    
Average Humidity 80    
Maximum Humidity 100    
Minimum Humidity 49    
Precipitation  
Precipitation 0.00 in 0.06 in - ()
Sea Level Pressure  
Sea Level Pressure 29.86 in    
Wind  
Wind Speed 8 mph ()    
Max Wind Speed 25 mph    
Max Gust Speed -    
Visibility 6.6 miles    
Events      
Averages and records for this station are not official NWS values.
T = Trace of Precipitation, MM = Missing Value Source: Averaged Metar Reports

Daily Weather History Graph

Daily Weather History Graph

Search for Another Location

Airport or City:

Trip Planner

Search our weather history database for the weather conditions in past years. The results will help you decide how hot, cold, wet, or windy it might be!

Date:

Astronomy

Oct. 09, 2012 Rise Set
Actual Time 6:59 AM CEST 6:08 PM CEST
Civil Twilight 6:27 AM CEST 6:40 PM CEST
Nautical Twilight 5:50 AM CEST 7:17 PM CEST
Astronomical Twilight 5:13 AM CEST 7:55 PM CEST
Moon No Moon Rise 2:56 PM CEST (10/9)
Length of Visible Light 12h 12m
Length of Day
11h 08m
Last Quarter, 39% of the Moon is Illuminated
Oct 9
Last Quarter
Oct 15
New
Oct 22
First Quarter
Oct 29
Full
Nov 7
Last Quarter

Hourly Weather History & Observations

Time (CEST) Temp. Windchill Dew Point Humidity Pressure Visibility Wind Dir Wind Speed Gust Speed Precip Events Conditions
12:00 AM 37.4 °F 32.8 °F 35.6 °F 93% 30.01 in - SW 5.8 mph - N/A   Clear
12:30 AM 39.2 °F 35.0 °F 37.4 °F 93% 30.01 in - SW 5.8 mph - N/A   Clear
1:00 AM 35.6 °F 31.7 °F 33.8 °F 93% 30.01 in 5.6 mi WSW 4.6 mph - N/A   Unknown
1:30 AM 37.4 °F 32.8 °F 35.6 °F 93% 29.98 in - SW 5.8 mph - N/A   Clear
2:00 AM 38 °F - 36 °F 89% 30.02 in 9 mi SW 6.7 mph - -  
2:00 AM 37.4 °F 32.1 °F 35.6 °F 93% 29.98 in - SW 6.9 mph - N/A   Clear
2:30 AM 37.4 °F 32.8 °F 35.6 °F 93% 29.98 in - SW 5.8 mph - N/A   Clear
3:00 AM 37.4 °F 32.8 °F 35.6 °F 93% 29.95 in - SW 5.8 mph - N/A   Clear
3:30 AM 35.6 °F 29.9 °F 35.6 °F 100% 29.95 in - SW 6.9 mph - N/A   Clear
4:00 AM 37.4 °F 32.1 °F 35.6 °F 93% 29.92 in - SW 6.9 mph - N/A   Clear
4:30 AM 35.6 °F 31.7 °F 33.8 °F 93% 29.92 in - SSW 4.6 mph - N/A   Clear
5:00 AM 35.6 °F 30.7 °F 33.8 °F 93% 29.89 in - SW 5.8 mph - N/A   Clear
5:30 AM 35.6 °F 32.8 °F 33.8 °F 93% 29.89 in - West 3.5 mph - N/A   Clear
6:00 AM 35.6 °F 31.7 °F 33.8 °F 93% 29.86 in - SW 4.6 mph - N/A   Clear
6:30 AM 33.8 °F 30.8 °F 32.0 °F 93% 29.86 in - SSW 3.5 mph - N/A   Clear
7:00 AM 33.8 °F - 32.0 °F 93% 29.83 in - SW 2.3 mph - N/A   Clear
7:30 AM 35.6 °F - 33.8 °F 93% 29.83 in - Variable 1.2 mph - N/A   Clear
8:00 AM 38 °F - 34 °F 78% 29.86 in 25 mi WSW 6.7 mph - -   Scattered Clouds
8:00 AM 37.4 °F 32.8 °F 33.8 °F 87% 29.83 in - WSW 5.8 mph - N/A   Clear
8:30 AM 41.0 °F 37.1 °F 37.4 °F 87% 29.83 in - WNW 5.8 mph - N/A   Clear
9:00 AM 44.6 °F 38.4 °F 37.4 °F 76% 29.83 in - WSW 12.7 mph - N/A   Clear
9:30 AM 48.2 °F - 41.0 °F 76% 29.83 in - SW 12.7 mph - N/A   Clear
10:00 AM 50.0 °F - 41.0 °F 71% 29.80 in - SW 13.8 mph - N/A   Clear
10:30 AM 51.8 °F - 41.0 °F 67% 29.80 in 6.2 mi SW 15.0 mph - N/A   Partly Cloudy
11:00 AM 51.8 °F - 42.8 °F 71% 29.80 in 6.2 mi WSW 16.1 mph - N/A   Partly Cloudy
11:30 AM 51.8 °F - 42.8 °F 71% 29.80 in 6.2 mi WSW 15.0 mph - N/A   Partly Cloudy
12:00 PM 51.8 °F - 42.8 °F 71% 29.80 in 6.2 mi WSW 13.8 mph - N/A   Partly Cloudy
12:30 PM 55.4 °F - 44.6 °F 67% 29.77 in 6.2 mi SW 16.1 mph - N/A   Partly Cloudy
1:00 PM 53.6 °F - 44.6 °F 72% 29.77 in 6.2 mi WSW 19.6 mph - N/A   Partly Cloudy
1:30 PM 55.4 °F - 44.6 °F 67% 29.77 in 6.2 mi WSW 25.3 mph - N/A   Partly Cloudy
2:00 PM 56 °F - 42 °F 49% 29.78 in 25 mi SW 24.6 mph - -   Scattered Clouds
2:00 PM 55.4 °F - 42.8 °F 63% 29.77 in 6.2 mi WSW 24.2 mph - N/A   Partly Cloudy
2:30 PM 55.4 °F - 41.0 °F 58% 29.77 in 6.2 mi SW 21.9 mph - N/A   Partly Cloudy
3:00 PM 55.4 °F - 42.8 °F 63% 29.77 in - WSW 17.3 mph - N/A   Clear
3:30 PM 55.4 °F - 42.8 °F 63% 29.77 in - SW 18.4 mph - N/A   Clear
4:00 PM 55.4 °F - 44.6 °F 67% 29.77 in 6.2 mi SW 17.3 mph - N/A   Partly Cloudy
4:30 PM 55.4 °F - 44.6 °F 67% 29.77 in 6.2 mi SW 15.0 mph - N/A   Scattered Clouds
5:00 PM 53.6 °F - 44.6 °F 72% 29.80 in 6.2 mi SW 15.0 mph - N/A   Partly Cloudy
5:30 PM 53.6 °F - 44.6 °F 72% 29.80 in 6.2 mi WSW 12.7 mph - N/A   Mostly Cloudy
6:00 PM 51.8 °F - 44.6 °F 76% 29.80 in 6.2 mi SW 9.2 mph - N/A   Mostly Cloudy
6:30 PM 50.0 °F - 44.6 °F 82% 29.83 in 6.2 mi SW 8.1 mph - N/A   Mostly Cloudy
7:00 PM 48.2 °F - 44.6 °F 87% 29.83 in 6.2 mi SW 5.8 mph - N/A   Partly Cloudy
7:30 PM 48.2 °F - 44.6 °F 87% 29.83 in - SSW 9.2 mph - N/A   Clear
8:00 PM 46 °F - 42 °F 83% 29.87 in 12 mi SW 6.7 mph - -   Clear
8:00 PM 46.4 °F 43.5 °F 42.8 °F 87% 29.83 in - SW 5.8 mph - N/A   Clear
8:30 PM 48.2 °F - 44.6 °F 87% 29.86 in - Variable 1.2 mph - N/A   Clear
9:00 PM 48.2 °F - 41.0 °F 76% 29.86 in - Variable 1.2 mph - N/A   Clear
9:30 PM 46.4 °F 45.2 °F 41.0 °F 81% 29.89 in 6.2 mi North 3.5 mph - N/A   Scattered Clouds
10:00 PM 46.4 °F - 39.2 °F 76% 29.89 in - Variable 1.2 mph - N/A   Clear
10:30 PM 46.4 °F - 39.2 °F 76% 29.89 in - Variable 2.3 mph - N/A   Clear
11:00 PM 42.8 °F 41.1 °F 37.4 °F 81% 29.89 in - Variable 3.5 mph - N/A   Clear
11:30 PM 44.6 °F 43.1 °F 37.4 °F 76% 29.89 in - WSW 3.5 mph - N/A   Clear